カタログに戻る

IUE

運用中科学MEO
NORAD 10637·PAYLOAD·🇺🇸 United States

打ち上げ Jan 26, 1978 から Cape Canaveral Space Force Station

Loading…

次のパス (今後24時間)

TLE

最新Source: Space-Track

元期: Sep 14, 2026, 02:12 UTC

1 10637U 78012A   26257.09186350 -.00000232  00000-0  00000-0 0  9997
2 10637  36.5650 287.0955 1440737 269.5596 284.2726  1.00057639129967

AllMySatでIUEをリアルタイム追跡

Download on the App Store